Regional Weather Roundup
Issued by NWS San Angelo, TX

Home | Current Version | Previous Version | Text Only | Print | Product List | Glossary Off
Versions: 1 2 3 4 5 6 7 8 9 10 11 12 13 14 15 16 17 18 19 20 21 22 23 24 25 26 27 28 29 30 31 32 33 34 35 36 37 38 39 40 41 42 43 44 45 46 47 48 49 50

000
ASUS44 KSJT 260210
RWRSJT
WEST CENTRAL TEXAS REGIONAL WEATHER ROUNDUP
NATIONAL WEATHER SERVICE SAN ANGELO TX
900 PM CDT TUE APR 25 2017

NOTE: "FAIR" INDICATES FEW OR NO CLOUDS BELOW 12,000 FEET WITH NO
SIGNIFICANT WEATHER AND/OR OBSTRUCTIONS TO VISIBILITY.

TXZ049-054-064>066-071>073-076>078-098-099-113-114-127-128-139-140-
154-155-168>170-260300
...LOCATIONS ACROSS WEST CENTRAL TEXAS...

CITY           SKY/WX    TMP DP  RH WIND       PRES   REMARKS
SAN ANGELO     CLEAR     84  30  14 S12       29.41S
ABILENE        CLEAR     76  43  30 S6        29.41R
DYESS AFB      NOT AVBL
JUNCTION       CLEAR     81  60  48 S9        29.48R
SWEETWATER     PTCLDY    81  32  17 W6        29.46R
BROWNWOOD      CLEAR     79  63  57 SE8       29.43S
COLEMAN        CLEAR     76  50  39 S8        29.43S
SONORA         CLOUDY    81  37  21 S7        29.51F
OZONA            N/A     79  41  25 S12       29.49S
BRADY          NOT AVBL
$$

TEXAS PANHANDLE/OKLAHOMA PANHANDLE

CITY           SKY/WX    TMP DP  RH WIND       PRES   REMARKS
AMARILLO       CLEAR     54  47  77 NE14      29.51R
BORGER         CLEAR     56  48  74 NE10      29.53R
CANADIAN       MOCLDY    56  50  80 NE8       29.52R
DALHART        LGT RAIN  52  49  89 NE9       29.57R
DUMAS          PTCLDY    51  45  79 NE10      29.54R
GUYMON         NOT AVBL
HEREFORD       CLEAR     65  36  33 W13G20    29.51S
PAMPA          CLEAR     53  48  83 NE12      29.53S
PERRYTON       CLOUDY    55  49  80 NE9       29.53R
$$

SOUTHERN PANHANDLE/SOUTH PLAINS/ROLLING PLAINS

CITY           SKY/WX    TMP DP  RH WIND       PRES   REMARKS
LUBBOCK        PTCLDY    73  31  21 NW9       29.48R
SNYDER         PTCLDY   N/A N/A N/A W6        29.44S
CHILDRESS      CLOUDY    72  44  36 CALM      29.42F
SEMINOLE       PTCLDY    76  30  18 W8        29.50R
$$

PERMIAN BASIN

CITY           SKY/WX    TMP DP  RH WIND       PRES   REMARKS
MIDLAND        CLEAR     81  29  15 W9        29.46S BLWGDUST
ODESSA         CLOUDY    82  28  14 W10       29.48S
WINK           CLOUDY    85  25  11 W18G28    29.45R
$$

FAR WEST/SOUTHWEST MOUNTAINS/TRANS PECOS

CITY           SKY/WX    TMP DP  RH WIND       PRES   REMARKS
ALPINE         PTCLDY    82  23  11 W14G26    29.66R
DRYDEN           N/A     83  56  39 SE9       29.44S
EL PASO        PTCLDY    77  30  17 W28G41    29.59R
FORT STOCKTON  CLOUDY    87  26  11 W14G22    29.48R
GUADALUPE PASS CLOUDY    71  28  20 W33G59    29.64R
MARFA          CLOUDY    79  26  14 W20G25    29.65R
PECOS          CLOUDY    86  29  12 W16G22    29.46R
$$

DALLAS/FORT WORTH METROPLEX

CITY           SKY/WX    TMP DP  RH WIND       PRES   REMARKS
DFW AIRPORT    PTCLDY    80  69  69 S20       29.41S
FTW MEACHAM    CLEAR     80  69  69 S22G30    29.41S
DAL-EXECUTIVE  CLEAR     79  68  69 S16G26    29.44R
GRAND PRAIRIE  CLEAR     79  66  65 S9G21     29.45R
ADDISON        PTCLDY    79  68  69 S22G35    29.43S
MESQUITE       CLEAR     76  67  74 SE14      29.46S
LANCASTER      CLEAR     77  67  72 S10G17    29.47R
$$

NORTH CENTRAL TEXAS

CITY           SKY/WX    TMP DP  RH WIND       PRES   REMARKS
SHRMAN/DENISON CLEAR     76  67  72 S17       29.42S
GAINESVILLE    CLEAR     75  66  73 S14       29.41S
BRIDGEPORT     CLEAR     78  65  65 S16G24    29.39S
DENTON         CLEAR     78  68  71 S17       29.41R
WAXAHACHIE     CLEAR     76  68  76 S13G21    29.48R
GRANBURY       CLEAR     80  67  65 SE10      29.43S
$$

WESTERN NORTH TEXAS

CITY           SKY/WX    TMP DP  RH WIND       PRES   REMARKS
WICHITA FALLS  CLOUDY    78  47  33 NW8       29.35R
VERNON         CLOUDY    75  49  38 N7        29.40R
BRECKENRIDGE   CLEAR     83  60  46 S14G22    29.38S
COMANCHE       CLEAR     78  65  64 S10G16    29.44S
$$

CENTRAL AND SOUTH CENTRAL TEXAS

CITY           SKY/WX    TMP DP  RH WIND       PRES   REMARKS
AUSTIN/BERGSTM MOCLDY    78  71  79 SE16G23   29.49S
WACO           CLOUDY    77  68  73 S18G31    29.45S
HILLSBORO      CLEAR     77  69  76 SE13G21   29.47R
TEMPLE         CLOUDY    77  70  79 SE17G24   29.47F
KILLEEN-GRAY   CLOUDY    76  69  78 SE15      29.46R
FORT HOOD      CLOUDY    76  68  76 S15G21    29.44R
GEORGETOWN     CLEAR     79  66  65 SE12G21   29.49R
LAGO VISTA     FAIR      78  69  74 SE9G17    29.51S
SAN MARCOS     MOCLDY    75  70  83 S13G20    29.52R
NEW BRAUNFELS  CLOUDY    78  71  79 S18       29.50R
RANDOLPH AFB   CLOUDY    76  75  95 SE14      29.50R
SAN ANTONIO    MOCLDY    80  71  74 E16       29.49R
STINSON        CLOUDY    81  71  71 SE15G21   29.46S
PLEASANTON     NOT AVBL
LA GRANGE      CLOUDY    77  72  84 S10       29.51R
GIDDINGS       PTCLDY    75  69  81 S8G20     29.53S
$$

EAST TEXAS

CITY           SKY/WX    TMP DP  RH WIND       PRES   REMARKS
PARIS          PTCLDY    73  64  73 S12       29.48S
CLARKSVILLE    NOT AVBL
TYLER          CLOUDY    77  69  76 S17G25    29.51S
LONGVIEW       CLOUDY    77  68  73 S12G20    29.54R
PALESTINE      CLOUDY    78  68  71 S8        29.53S
NACOGDOCHES    CLOUDY    75  66  73 S16G22    29.55S
$$

TEXAS HILL COUNTRY AND EDWARDS PLATEAU

CITY           SKY/WX    TMP DP  RH WIND       PRES   REMARKS
LLANO          CLEAR     79  64  61 CALM      29.49S
HORSESHOE BAY  FAIR      80  69  69 SE9       29.48R
KERRVILLE      CLOUDY    77  66  69 E5        29.51S
FREDERICKSBRG  CLOUDY    73  61  65 CALM      29.51S
ROCKSPRINGS    CLEAR     73  61  64 CALM      29.56R
HONDO          CLOUDY    81  65  58 E9        29.46S
UVALDE         PTCLDY    80  64  58 CALM      29.45R
DEL RIO        CLOUDY    80  64  58 NE5       29.42S
$$

SOUTHEAST TEXAS

CITY           SKY/WX    TMP DP  RH WIND       PRES   REMARKS
COLLEGE STN    CLOUDY    78  69  73 S13G23    29.54R
CALDWELL       NOT AVBL
CROCKETT       LGT RAIN  75  68  78 S10G16    29.58R
BRENHAM        CLOUDY    78  70  76 S10G18    29.56R
HUNTSVILLE     CLOUDY    78  66  66 S13G20    29.55S
CONROE         CLOUDY    76  68  76 S12       29.58R
HOUSTON BUSH   MOCLDY    77  69  76 S18G24    29.58S
HOUSTON HOBBY  CLOUDY    76  70  82 S9        29.59R
PERLAND        CLOUDY    78  71  79 S13       29.61S
WHARTON        CLOUDY    75  69  79 SE15      29.59R
$$

THE UPPER TEXAS COAST

CITY           SKY/WX    TMP DP  RH WIND       PRES   REMARKS
ORANGE         CLOUDY    75  71  86 S10G17    29.66R
PORT ARTHUR    CLOUDY    75  70  84 S15       29.63S
GALVESTON      CLOUDY    78  73  84 S16       29.61F
ANGLETON       CLOUDY    79  72  79 S18G26    29.59S
BAY CITY       CLOUDY    76  72  86 SE10      29.58S
$$

TEXAS COASTAL BEND, RIO GRANDE PLAINS DEEP SOUTH TEXAS

CITY           SKY/WX    TMP DP  RH WIND       PRES   REMARKS
VICTORIA       CLOUDY    77  71  82 S16G25    29.55R
BEEVILLE       MOCLDY    76  76 100 SE8       29.50S
ROCKPORT       PTCLDY    77  72  84 SE15G31   29.53R
PORT ARANSAS   MOCLDY    76  73  89 S21G30    29.52S FOG
PORT LAVACA    CLOUDY    76  73  93 S16G22    29.56R
CORPUS CHRISTI MOCLDY    77  73  87 S25G32    29.51R
KINGSVILLE NAS PTCLDY    78  75  90 SE22G29   29.49R
COTULLA        CLOUDY    89  58  34 SE10      29.42R
LAREDO         CLEAR     90  61  37 SE13      29.44R
BROWNSVILLE    CLOUDY    80  73  79 S21G31    29.54R
PORT ISABEL    CLOUDY    80  73  79 S23G33    29.53R
HEBBRONVILLE   CLEAR     84  68  58 S12       29.49R
MCALLEN        CLEAR     81  73  76 SE17      29.51R
WESLACO        MOCLDY    78  73  82 S17       29.50S
FALFURRIAS     CLEAR     84  69  60 SE10      29.48R
EDINBURG       CLEAR     82  72  72 SE10      29.51R
$$




USA.gov is the U.S. government's official web portal to all federal, state and local government web resources and services.